Tangra v3.6.0.5
Measurments of 3 objects
C:\Users\Public\zakryt1.avi
Asteroidal Video (AVI.2YUY), Time: OCR-ed Timestamps


Reversed Gamma, Colour, Measured Band, Integration, Digital Filter, Signal Method, Background Method, Instrumental Delay Corrections, Camera, AAV Integration, First Frame, Last Frame, Reversed Camera Response
1,00,no,Red,no,NoFilter,AperturePhotometry,AverageBackground,Not Applied,,,11874,17480,

Object, Type, Aperture, Tolerance, FWHM, Measured, StartingX, StartingY, Fixed
1,OccultedStar,3,93,4,74,2,41,yes,315,0,221,4,no
2,GuidingStar,3,93,,3,07,yes,171,4,314,0,no
3,GuidingStar,3,93,,2,86,yes,206,6,183,4,no


FrameNo,Time (UT),Signal (1), Background (1),Signal (2), Background (2),Signal (3), Background (3)
11874,[00:28:01.119],3351.0,1924.0,3306.0,2049.0,2923.0,2005.0
11875,[00:28:01.159],3322.0,1909.0,3322.0,2063.0,2937.0,2002.0
11876,[00:28:01.199],3333.0,1914.0,3312.0,2052.0,2923.0,1999.0
11877,[00:28:01.239],3338.0,1915.0,3326.0,2047.0,2917.0,1996.0
11878,[00:28:01.279],3309.0,1904.0,3323.0,2054.0,2927.0,2004.0
11879,[00:28:01.319],3353.0,1911.0,3320.0,2046.0,2930.0,1988.0
11880,[00:28:01.359],3331.0,1927.0,3318.0,2060.0,2906.0,1992.0
11881,[00:28:01.399],3182.0,1891.0,3651.0,2098.0,3284.0,2063.0
11882,[00:28:01.439],3121.0,1855.0,3617.0,2091.0,3261.0,2042.0
11883,[00:28:01.479],3138.0,1851.0,3630.0,2081.0,3278.0,2037.0
11884,[00:28:01.519],3157.0,1860.0,3613.0,2087.0,3268.0,2041.0
11885,[00:28:01.559],3162.0,1861.0,3609.0,2093.0,3302.0,2048.0
11886,[00:28:01.599],3150.0,1853.0,3631.0,2088.0,3270.0,2044.0
11887,[00:28:01.639],3147.0,1862.0,3618.0,2085.0,3272.0,2033.0
11888,[00:28:01.679],3144.0,1857.0,3625.0,2086.0,3273.0,2040.0
11889,[00:28:01.719],3075.0,1990.0,3299.0,1942.0,2556.0,1844.0
11890,[00:28:01.759],3040.0,1958.0,3285.0,1950.0,2551.0,1832.0
11891,[00:28:01.799],3033.0,1952.0,3289.0,1950.0,2558.0,1839.0
11892,[00:28:01.839],3022.0,1955.0,3286.0,1942.0,2582.0,1844.0
11893,[00:28:01.879],3040.0,1963.0,3300.0,1947.0,2553.0,1834.0
11894,[00:28:01.919],3037.0,1962.0,3292.0,1947.0,2556.0,1846.0
11895,[00:28:01.959],3035.0,1968.0,3263.0,1938.0,2565.0,1838.0
11896,[00:28:01.999],3040.0,1959.0,3274.0,1950.0,2570.0,1832.0
11897,[00:28:02.039],3046.0,1961.0,3433.0,1998.0,2561.0,1890.0
11898,[00:28:02.079],3022.0,1939.0,3418.0,2016.0,2531.0,1869.0
11899,[00:28:02.119],3004.0,1942.0,3425.0,2018.0,2508.0,1866.0
11900,[00:28:02.159],3019.0,1943.0,3436.0,2008.0,2529.0,1865.0
11901,[00:28:02.199],3004.0,1936.0,3433.0,2004.0,2549.0,1862.0
11902,[00:28:02.239],3012.0,1955.0,3430.0,1990.0,2523.0,1863.0
11903,[00:28:02.279],3018.0,1925.0,3445.0,2006.0,2517.0,1873.0
11904,[00:28:02.319],3009.0,1942.0,3424.0,1999.0,2547.0,1881.0
11905,[00:28:02.359],3409.0,2043.0,3272.0,2040.0,2723.0,1935.0
11906,[00:28:02.399],3387.0,2009.0,3273.0,2031.0,2701.0,1930.0
11907,[00:28:02.439],3367.0,1985.0,3253.0,2038.0,2686.0,1916.0
11908,[00:28:02.479],3381.0,1992.0,3224.0,2027.0,2702.0,1932.0
11909,[00:28:02.519],3369.0,1996.0,3252.0,2039.0,2709.0,1925.0
11910,[00:28:02.559],3356.0,2002.0,3268.0,2037.0,2701.0,1927.0
11911,[00:28:02.599],3367.0,1991.0,3251.0,2031.0,2690.0,1927.0
11912,[00:28:02.639],3362.0,1990.0,3250.0,2033.0,2712.0,1929.0
11913,[00:28:02.679],3147.0,2029.0,3206.0,1955.0,2820.0,1942.0
11914,[00:28:02.719],3118.0,1998.0,3221.0,1971.0,2777.0,1931.0
11915,[00:28:02.759],3126.0,2024.0,3203.0,1960.0,2759.0,1904.0
11916,[00:28:02.799],3111.0,1998.0,3225.0,1983.0,2762.0,1926.0
11917,[00:28:02.839],3114.0,2005.0,3226.0,1978.0,2779.0,1919.0
11918,[00:28:02.879],3096.0,2003.0,3223.0,1960.0,2755.0,1917.0
11919,[00:28:02.919],3096.0,2003.0,3225.0,1973.0,2794.0,1913.0
11920,[00:28:02.959],3097.0,2007.0,3222.0,1973.0,2777.0,1933.0
11921,[00:28:02.999],2860.0,2009.0,3351.0,1928.0,2997.0,1938.0
11922,[00:28:03.039],2814.0,1973.0,3343.0,1922.0,2970.0,1919.0
11923,[00:28:03.079],2810.0,1965.0,3351.0,1930.0,2975.0,1911.0
11924,[00:28:03.119],2784.0,1959.0,3326.0,1922.0,2952.0,1921.0
11925,[00:28:03.159],2826.0,1966.0,3338.0,1925.0,2979.0,1925.0
11926,[00:28:03.199],2827.0,1970.0,3325.0,1924.0,2963.0,1932.0
11927,[00:28:03.239],2817.0,1970.0,3354.0,1932.0,2977.0,1912.0
11928,[00:28:03.279],2834.0,1970.0,3344.0,1926.0,2969.0,1920.0
11929,[00:28:03.319],3109.0,1968.0,3035.0,2047.0,3016.0,1938.0
11930,[00:28:03.359],3076.0,1935.0,3033.0,2041.0,3003.0,1920.0
11931,[00:28:03.399],3090.0,1939.0,3022.0,2040.0,2988.0,1921.0
11932,[00:28:03.439],3092.0,1947.0,3023.0,2030.0,2978.0,1922.0
11933,[00:28:03.479],3088.0,1947.0,3007.0,2037.0,2959.0,1914.0
11934,[00:28:03.519],3107.0,1947.0,3022.0,2047.0,2983.0,1925.0
11935,[00:28:03.559],3096.0,1956.0,3021.0,2050.0,2991.0,1921.0
11936,[00:28:03.599],3089.0,1946.0,3000.0,2029.0,2979.0,1932.0
11937,[00:28:03.639],3253.0,2149.0,3071.0,2077.0,3159.0,1984.0
11938,[00:28:03.679],3227.0,2120.0,3053.0,2057.0,3125.0,1966.0
11939,[00:28:03.719],3243.0,2130.0,3046.0,2060.0,3118.0,1951.0
11940,[00:28:03.759],3226.0,2119.0,3050.0,2059.0,3118.0,1960.0
11941,[00:28:03.799],3233.0,2121.0,3060.0,2080.0,3136.0,1952.0
11942,[00:28:03.839],3259.0,2134.0,3058.0,2068.0,3115.0,1965.0
11943,[00:28:03.879],3218.0,2139.0,3058.0,2057.0,3117.0,1957.0
11944,[00:28:03.919],3214.0,2123.0,3080.0,2078.0,3141.0,1965.0
11945,[00:28:03.959],3242.0,1991.0,3359.0,1929.0,3023.0,1968.0
11946,[00:28:03.999],3265.0,1972.0,3354.0,1932.0,3025.0,1963.0
11947,[00:28:04.039],3231.0,1961.0,3329.0,1920.0,2991.0,1945.0
11948,[00:28:04.079],3235.0,1971.0,3322.0,1918.0,2987.0,1958.0
11949,[00:28:04.119],3189.0,1960.0,3377.0,1927.0,3020.0,1970.0
11950,[00:28:04.159],3210.0,1963.0,3334.0,1932.0,3018.0,1957.0
11951,[00:28:04.199],3219.0,1969.0,3359.0,1930.0,3018.0,1958.0
11952,[00:28:04.239],3224.0,1964.0,3353.0,1939.0,3018.0,1962.0
11953,[00:28:04.279],2934.0,1903.0,3598.0,2116.0,3082.0,1906.0
11954,[00:28:04.319],2906.0,1855.0,3607.0,2108.0,3111.0,1914.0
11955,[00:28:04.359],2893.0,1872.0,3614.0,2111.0,3112.0,1919.0
11956,[00:28:04.399],2896.0,1852.0,3622.0,2109.0,3099.0,1896.0
11957,[00:28:04.439],2895.0,1872.0,3606.0,2095.0,3095.0,1902.0
11958,[00:28:04.479],2897.0,1867.0,3612.0,2113.0,3102.0,1912.0
11959,[00:28:04.519],2895.0,1872.0,3624.0,2116.0,3097.0,1905.0
11960,[00:28:04.559],2890.0,1862.0,3612.0,2127.0,3105.0,1903.0
11961,[00:28:04.599],3318.0,2051.0,3225.0,2003.0,2894.0,1996.0
11962,[00:28:04.639],3270.0,2021.0,3211.0,1992.0,2884.0,1980.0
11963,[00:28:04.679],3314.0,2017.0,3227.0,2000.0,2899.0,1981.0
11964,[00:28:04.719],3279.0,2025.0,3208.0,1994.0,2879.0,1984.0
11965,[00:28:04.759],3310.0,2031.0,3229.0,1990.0,2900.0,1976.0
11966,[00:28:04.799],3329.0,2024.0,3205.0,1986.0,2877.0,1978.0
11967,[00:28:04.839],3304.0,2025.0,3227.0,1990.0,2903.0,1971.0
11968,[00:28:04.879],3264.0,2025.0,3206.0,1991.0,2924.0,1991.0
11969,[00:28:04.919],3337.0,1967.0,3175.0,1985.0,3027.0,1918.0
11970,[00:28:04.959],3276.0,1929.0,3157.0,1964.0,3017.0,1893.0
11971,[00:28:04.999],3310.0,1951.0,3178.0,1976.0,2998.0,1885.0
11972,[00:28:05.039],3287.0,1934.0,3185.0,1963.0,2996.0,1890.0
11973,[00:28:05.079],3272.0,1930.0,3175.0,1968.0,2982.0,1895.0
11974,[00:28:05.119],3268.0,1931.0,3148.0,1958.0,3010.0,1900.0
11975,[00:28:05.159],3283.0,1932.0,3187.0,1973.0,3026.0,1886.0
11976,[00:28:05.199],3289.0,1934.0,3169.0,1967.0,3011.0,1892.0
11977,[00:28:05.239],3312.0,2052.0,3312.0,2078.0,2565.0,1819.0
11978,[00:28:05.279],3269.0,2030.0,3327.0,2063.0,2540.0,1806.0
11979,[00:28:05.319],3290.0,2035.0,3326.0,2079.0,2539.0,1801.0
11980,[00:28:05.359],3280.0,2029.0,3337.0,2090.0,2556.0,1802.0
11981,[00:28:05.399],3283.0,2034.0,3337.0,2085.0,2543.0,1802.0
11982,[00:28:05.439],3280.0,2043.0,3326.0,2078.0,2533.0,1794.0
11983,[00:28:05.479],3286.0,2033.0,3329.0,2094.0,2535.0,1790.0
11984,[00:28:05.519],3283.0,2029.0,3329.0,2094.0,2549.0,1802.0
11985,[00:28:05.559],3566.0,2020.0,2900.0,2086.0,3208.0,2040.0
11986,[00:28:05.599],3489.0,1975.0,2894.0,2080.0,3213.0,2030.0
11987,[00:28:05.639],3495.0,1970.0,2895.0,2067.0,3197.0,2021.0
11988,[00:28:05.679],3508.0,1986.0,2903.0,2067.0,3198.0,2003.0
11989,[00:28:05.719],3515.0,1977.0,2891.0,2076.0,3196.0,1998.0
11990,[00:28:05.759],3515.0,1984.0,2901.0,2079.0,3227.0,2014.0
11991,[00:28:05.799],3502.0,1975.0,2904.0,2076.0,3191.0,2004.0
11992,[00:28:05.839],3492.0,1978.0,2870.0,2074.0,3219.0,2020.0
11993,[00:28:05.879],3240.0,1954.0,3105.0,2068.0,2614.0,1969.0
11994,[00:28:05.919],3248.0,1924.0,3069.0,2037.0,2562.0,1958.0
11995,[00:28:05.959],3232.0,1940.0,3084.0,2049.0,2597.0,1964.0
11996,[00:28:05.999],3206.0,1936.0,3079.0,2046.0,2576.0,1947.0
11997,[00:28:06.039],3207.0,1924.0,3066.0,2031.0,2570.0,1970.0
11998,[00:28:06.079],3247.0,1932.0,3085.0,2057.0,2559.0,1949.0
11999,[00:28:06.119],3251.0,1941.0,3102.0,2059.0,2573.0,1961.0
12000,[00:28:06.159],3204.0,1923.0,3077.0,2044.0,2578.0,1960.0
12001,[00:28:06.199],2819.0,1819.0,3281.0,1943.0,2570.0,1921.0
12002,[00:28:06.239],2802.0,1816.0,3258.0,1927.0,2552.0,1908.0
12003,[00:28:06.279],2780.0,1798.0,3283.0,1924.0,2569.0,1902.0
12004,[00:28:06.319],2791.0,1794.0,3271.0,1925.0,2571.0,1904.0
12005,[00:28:06.359],2787.0,1806.0,3260.0,1931.0,2573.0,1920.0
12006,[00:28:06.399],2792.0,1793.0,3251.0,1919.0,2563.0,1906.0
12007,[00:28:06.439],2779.0,1805.0,3269.0,1928.0,2562.0,1909.0
12008,[00:28:06.479],2786.0,1802.0,3266.0,1928.0,2570.0,1903.0
12009,[00:28:06.519],2732.0,2011.0,3595.0,1943.0,2639.0,1892.0
12010,[00:28:06.559],2714.0,1970.0,3605.0,1927.0,2627.0,1893.0
12011,[00:28:06.599],2732.0,1978.0,3630.0,1921.0,2638.0,1898.0
12012,[00:28:06.639],2695.0,1968.0,3626.0,1930.0,2640.0,1899.0
12013,[00:28:06.679],2722.0,1977.0,3616.0,1925.0,2620.0,1884.0
12014,[00:28:06.719],2716.0,1986.0,3606.0,1924.0,2627.0,1884.0
12015,[00:28:06.759],2717.0,1975.0,3594.0,1919.0,2632.0,1891.0
12016,[00:28:06.799],2730.0,1972.0,3596.0,1921.0,2591.0,1869.0
12017,[00:28:06.839],3439.0,2077.0,3701.0,1999.0,3306.0,1865.0
12018,[00:28:06.879],3407.0,2033.0,3706.0,2001.0,3297.0,1845.0
12019,[00:28:06.919],3414.0,2031.0,3692.0,1990.0,3295.0,1841.0
12020,[00:28:06.959],3396.0,2027.0,3691.0,2006.0,3311.0,1849.0
12021,[00:28:06.999],3386.0,2032.0,3728.0,2007.0,3292.0,1847.0
12022,[00:28:07.039],3413.0,2029.0,3713.0,2013.0,3297.0,1841.0
12023,[00:28:07.079],3400.0,2049.0,3716.0,1988.0,3298.0,1855.0
12024,[00:28:07.119],3430.0,2041.0,3729.0,1993.0,3292.0,1834.0
12025,[00:28:07.159],3004.0,1928.0,3781.0,2130.0,3174.0,1918.0
12026,[00:28:07.199],2950.0,1897.0,3803.0,2132.0,3114.0,1903.0
12027,[00:28:07.239],2993.0,1896.0,3797.0,2130.0,3118.0,1900.0
12028,[00:28:07.279],2984.0,1892.0,3782.0,2127.0,3112.0,1900.0
12029,[00:28:07.319],2975.0,1901.0,3781.0,2126.0,3141.0,1906.0
12030,[00:28:07.359],2961.0,1887.0,3778.0,2124.0,3094.0,1893.0
12031,[00:28:07.399],2970.0,1878.0,3791.0,2131.0,3136.0,1901.0
12032,[00:28:07.439],2967.0,1889.0,3782.0,2132.0,3115.0,1908.0
12033,[00:28:07.479],3637.0,2133.0,3255.0,1988.0,3146.0,1991.0
12034,[00:28:07.519],3589.0,2095.0,3254.0,1994.0,3165.0,1987.0
12035,[00:28:07.559],3586.0,2083.0,3244.0,1971.0,3126.0,1965.0
12036,[00:28:07.599],3590.0,2090.0,3249.0,1981.0,3139.0,1970.0
12037,[00:28:07.639],3586.0,2099.0,3247.0,1978.0,3122.0,1971.0
12038,[00:28:07.679],3573.0,2089.0,3257.0,1984.0,3108.0,1972.0
12039,[00:28:07.719],3572.0,2082.0,3251.0,1979.0,3140.0,1973.0
12040,[00:28:07.759],3570.0,2086.0,3259.0,1980.0,3124.0,1977.0
12041,[00:28:07.799],3300.0,1995.0,3469.0,2000.0,2769.0,2000.0
12042,[00:28:07.839],3274.0,1980.0,3459.0,1984.0,2761.0,1981.0
12043,[00:28:07.879],3252.0,1966.0,3470.0,1991.0,2756.0,1972.0
12044,[00:28:07.919],3261.0,1965.0,3480.0,1991.0,2744.0,1990.0
12045,[00:28:07.959],3261.0,1958.0,3501.0,1998.0,2724.0,1965.0
12046,[00:28:07.999],3272.0,1973.0,3458.0,1982.0,2717.0,1949.0
12047,[00:28:08.039],3272.0,1974.0,3489.0,1988.0,2741.0,1963.0
12048,[00:28:08.079],3265.0,1969.0,3481.0,1990.0,2764.0,1988.0
12049,[00:28:08.119],3247.0,1933.0,3503.0,2006.0,2893.0,1891.0
12050,[00:28:08.159],3194.0,1904.0,3456.0,1997.0,2900.0,1880.0
12051,[00:28:08.199],3212.0,1911.0,3458.0,2001.0,2874.0,1875.0
12052,[00:28:08.239],3218.0,1920.0,3472.0,2007.0,2878.0,1879.0
12053,[00:28:08.279],3215.0,1909.0,3483.0,2007.0,2875.0,1879.0
12054,[00:28:08.319],3197.0,1901.0,3453.0,1994.0,2876.0,1881.0
12055,[00:28:08.359],3212.0,1910.0,3483.0,2013.0,2897.0,1875.0
12056,[00:28:08.399],3237.0,1905.0,3476.0,2018.0,2873.0,1883.0
12057,[00:28:08.439],3069.0,1977.0,3137.0,1900.0,3031.0,1971.0
12058,[00:28:08.479],3059.0,1956.0,3145.0,1901.0,3005.0,1936.0
12059,[00:28:08.519],3040.0,1943.0,3123.0,1897.0,2986.0,1938.0
12060,[00:28:08.559],3049.0,1939.0,3162.0,1915.0,2981.0,1940.0
12061,[00:28:08.599],3026.0,1944.0,3127.0,1925.0,3024.0,1944.0
12062,[00:28:08.639],3052.0,1957.0,3139.0,1916.0,2972.0,1935.0
12063,[00:28:08.679],3048.0,1959.0,3150.0,1900.0,2990.0,1943.0
12064,[00:28:08.719],3066.0,1959.0,3131.0,1909.0,3003.0,1949.0
12065,[00:28:08.759],3441.0,1958.0,3218.0,2062.0,2737.0,1921.0
12066,[00:28:08.799],3381.0,1922.0,3200.0,2039.0,2707.0,1891.0
12067,[00:28:08.839],3386.0,1917.0,3210.0,2048.0,2730.0,1901.0
12068,[00:28:08.879],3378.0,1899.0,3199.0,2049.0,2716.0,1904.0
12069,[00:28:08.919],3392.0,1916.0,3212.0,2045.0,2707.0,1895.0
12070,[00:28:08.959],3380.0,1916.0,3204.0,2048.0,2729.0,1888.0
12071,[00:28:08.999],3378.0,1921.0,3202.0,2062.0,2713.0,1901.0
12072,[00:28:09.039],3379.0,1917.0,3189.0,2047.0,2707.0,1890.0
12073,[00:28:09.079],3500.0,1967.0,3030.0,1995.0,2963.0,1853.0
12074,[00:28:09.119],3458.0,1940.0,3035.0,1985.0,2943.0,1832.0
12075,[00:28:09.159],3473.0,1947.0,3010.0,1964.0,2903.0,1816.0
12076,[00:28:09.199],3455.0,1947.0,2994.0,1972.0,2912.0,1826.0
12077,[00:28:09.239],3459.0,1937.0,3007.0,1980.0,2915.0,1819.0
12078,[00:28:09.279],3454.0,1933.0,3008.0,1980.0,2908.0,1825.0
12079,[00:28:09.319],3464.0,1925.0,3010.0,1974.0,2938.0,1819.0
12080,[00:28:09.359],3452.0,1938.0,3002.0,1976.0,2915.0,1821.0
12081,[00:28:09.399],2903.0,1982.0,3357.0,2033.0,2866.0,1961.0
12082,[00:28:09.439],2848.0,1936.0,3358.0,2044.0,2851.0,1955.0
12083,[00:28:09.479],2877.0,1954.0,3307.0,2021.0,2846.0,1947.0
12084,[00:28:09.519],2864.0,1936.0,3347.0,2038.0,2843.0,1946.0
12085,[00:28:09.559],2870.0,1947.0,3351.0,2050.0,2872.0,1946.0
12086,[00:28:09.599],2865.0,1953.0,3346.0,2049.0,2845.0,1949.0
12087,[00:28:09.639],2858.0,1948.0,3348.0,2034.0,2836.0,1941.0
12088,[00:28:09.679],2845.0,1932.0,3327.0,2035.0,2843.0,1947.0
12089,[00:28:09.719],3115.0,1914.0,3415.0,1994.0,3408.0,1904.0
12090,[00:28:09.759],3059.0,1887.0,3418.0,2001.0,3409.0,1873.0
12091,[00:28:09.799],3067.0,1875.0,3379.0,1975.0,3400.0,1892.0
12092,[00:28:09.839],3072.0,1880.0,3425.0,1993.0,3397.0,1885.0
12093,[00:28:09.879],3077.0,1890.0,3414.0,2002.0,3389.0,1879.0
12094,[00:28:09.919],3078.0,1890.0,3402.0,1982.0,3393.0,1884.0
12095,[00:28:09.959],3078.0,1886.0,3411.0,1990.0,3395.0,1884.0
12096,[00:28:09.999],3088.0,1905.0,3394.0,1980.0,3373.0,1883.0
12097,[00:28:10.039],3489.0,2018.0,3235.0,1975.0,2602.0,1940.0
12098,[00:28:10.079],3470.0,1996.0,3227.0,1953.0,2591.0,1920.0
12099,[00:28:10.119],3465.0,1984.0,3202.0,1949.0,2580.0,1924.0
12100,[00:28:10.159],3458.0,1981.0,3216.0,1966.0,2588.0,1934.0
12101,[00:28:10.199],3464.0,1991.0,3201.0,1951.0,2583.0,1930.0
12102,[00:28:10.239],3477.0,1995.0,3233.0,1967.0,2592.0,1920.0
12103,[00:28:10.279],3447.0,1982.0,3219.0,1966.0,2602.0,1922.0
12104,[00:28:10.319],3463.0,1995.0,3199.0,1959.0,2573.0,1927.0
12105,[00:28:10.359],3142.0,1982.0,3648.0,2013.0,2767.0,1817.0
12106,[00:28:10.399],3092.0,1933.0,3650.0,2015.0,2754.0,1789.0
12107,[00:28:10.439],3086.0,1942.0,3641.0,2018.0,2741.0,1801.0
12108,[00:28:10.479],3090.0,1941.0,3649.0,2023.0,2752.0,1815.0
12109,[00:28:10.519],3115.0,1941.0,3635.0,2015.0,2760.0,1801.0
12110,[00:28:10.559],3073.0,1938.0,3648.0,2030.0,2726.0,1792.0
12111,[00:28:10.599],3106.0,1939.0,3642.0,2019.0,2750.0,1806.0
12112,[00:28:10.639],3116.0,1954.0,3654.0,2016.0,2713.0,1796.0
12113,[00:28:10.679],3346.0,2006.0,3199.0,2032.0,3125.0,1994.0
12114,[00:28:10.719],3290.0,1972.0,3189.0,2019.0,3124.0,1982.0
12115,[00:28:10.759],3296.0,1961.0,3164.0,2005.0,3093.0,1961.0
12116,[00:28:10.799],3302.0,1969.0,3165.0,2012.0,3111.0,1982.0
12117,[00:28:10.839],3286.0,1973.0,3193.0,2037.0,3135.0,1991.0
12118,[00:28:10.879],3303.0,1971.0,3184.0,2022.0,3110.0,1974.0
12119,[00:28:10.919],3290.0,1970.0,3189.0,2021.0,3118.0,1977.0
12120,[00:28:10.959],3303.0,1979.0,3185.0,2034.0,3118.0,1987.0
12121,[00:28:10.999],2968.0,1904.0,3118.0,1950.0,2913.0,2009.0
12122,[00:28:11.039],2924.0,1882.0,3120.0,1969.0,2901.0,1972.0
12123,[00:28:11.079],2919.0,1870.0,3104.0,1954.0,2912.0,1986.0
12124,[00:28:11.119],2931.0,1874.0,3101.0,1966.0,2912.0,1989.0
12125,[00:28:11.159],2943.0,1872.0,3101.0,1954.0,2884.0,1972.0
12126,[00:28:11.199],2906.0,1873.0,3109.0,1956.0,2889.0,1993.0
12127,[00:28:11.239],2909.0,1871.0,3105.0,1960.0,2922.0,1991.0
12128,[00:28:11.279],2924.0,1854.0,3113.0,1948.0,2912.0,1982.0
12129,[00:28:11.319],2812.0,1949.0,3286.0,2044.0,2627.0,1878.0
12130,[00:28:11.359],2756.0,1906.0,3276.0,2031.0,2608.0,1867.0
12131,[00:28:11.399],2740.0,1922.0,3292.0,2040.0,2618.0,1863.0
12132,[00:28:11.439],2729.0,1894.0,3290.0,2036.0,2624.0,1860.0
12133,[00:28:11.479],2759.0,1902.0,3300.0,2038.0,2614.0,1867.0
12134,[00:28:11.519],2747.0,1894.0,3267.0,2010.0,2611.0,1855.0
12135,[00:28:11.559],2754.0,1902.0,3257.0,2024.0,2604.0,1853.0
12136,[00:28:11.599],2741.0,1890.0,3286.0,2029.0,2605.0,1875.0
12137,[00:28:11.639],3449.0,2091.0,3291.0,1929.0,2548.0,1778.0
12138,[00:28:11.679],3402.0,2057.0,3280.0,1911.0,2507.0,1749.0
12139,[00:28:11.719],3382.0,2050.0,3295.0,1921.0,2504.0,1749.0
12140,[00:28:11.759],3378.0,2057.0,3282.0,1928.0,2512.0,1748.0
12141,[00:28:11.799],3375.0,2051.0,3272.0,1910.0,2508.0,1746.0
12142,[00:28:11.839],3395.0,2052.0,3293.0,1925.0,2477.0,1747.0
12143,[00:28:11.879],3384.0,2052.0,3301.0,1917.0,2509.0,1749.0
12144,[00:28:11.919],3400.0,2051.0,3274.0,1923.0,2510.0,1742.0
12145,[00:28:11.959],2839.0,1941.0,3072.0,1949.0,3233.0,2015.0
12146,[00:28:11.999],2821.0,1921.0,3040.0,1945.0,3216.0,1987.0
12147,[00:28:12.039],2816.0,1907.0,3061.0,1961.0,3231.0,1997.0
12148,[00:28:12.079],2790.0,1912.0,3046.0,1955.0,3236.0,1990.0
12149,[00:28:12.119],2807.0,1916.0,3051.0,1957.0,3219.0,1981.0
12150,[00:28:12.159],2810.0,1913.0,3074.0,1962.0,3237.0,1997.0
12151,[00:28:12.199],2795.0,1910.0,3050.0,1948.0,3209.0,1982.0
12152,[00:28:12.239],2803.0,1901.0,3040.0,1959.0,3221.0,1991.0
12153,[00:28:12.279],3278.0,1982.0,3343.0,2074.0,3099.0,1935.0
12154,[00:28:12.319],3225.0,1944.0,3344.0,2070.0,3070.0,1916.0
12155,[00:28:12.359],3227.0,1952.0,3348.0,2075.0,3085.0,1915.0
12156,[00:28:12.399],3226.0,1948.0,3299.0,2068.0,3074.0,1909.0
12157,[00:28:12.439],3220.0,1941.0,3352.0,2068.0,3096.0,1918.0
12158,[00:28:12.479],3222.0,1943.0,3314.0,2055.0,3082.0,1904.0
12159,[00:28:12.519],3225.0,1947.0,3333.0,2084.0,3065.0,1908.0
12160,[00:28:12.559],3216.0,1946.0,3329.0,2076.0,3090.0,1925.0
12161,[00:28:12.599],3392.0,1934.0,3264.0,2157.0,3016.0,1875.0
12162,[00:28:12.639],3379.0,1916.0,3243.0,2159.0,2996.0,1875.0
12163,[00:28:12.679],3382.0,1928.0,3239.0,2158.0,2965.0,1863.0
12164,[00:28:12.719],3380.0,1918.0,3250.0,2176.0,2978.0,1872.0
12165,[00:28:12.759],3374.0,1938.0,3222.0,2152.0,2988.0,1859.0
12166,[00:28:12.799],3407.0,1916.0,3248.0,2167.0,2996.0,1867.0
12167,[00:28:12.839],3388.0,1925.0,3223.0,2145.0,2991.0,1864.0
12168,[00:28:12.879],3369.0,1929.0,3253.0,2160.0,2986.0,1874.0
12169,[00:28:12.919],3159.0,2039.0,3574.0,2098.0,2611.0,1937.0
12170,[00:28:12.959],3134.0,2026.0,3586.0,2102.0,2585.0,1941.0
12171,[00:28:12.999],3124.0,2009.0,3566.0,2089.0,2577.0,1930.0
12172,[00:28:13.039],3112.0,2003.0,3546.0,2078.0,2573.0,1923.0
12173,[00:28:13.079],3153.0,2031.0,3565.0,2088.0,2589.0,1929.0
12174,[00:28:13.119],3128.0,2012.0,3585.0,2093.0,2588.0,1934.0
12175,[00:28:13.159],3132.0,2017.0,3554.0,2084.0,2578.0,1947.0
12176,[00:28:13.199],3145.0,2027.0,3569.0,2086.0,2596.0,1940.0
12177,[00:28:13.239],3197.0,1980.0,3162.0,2012.0,3317.0,1968.0
12178,[00:28:13.279],3149.0,1943.0,3151.0,2008.0,3307.0,1942.0
12179,[00:28:13.319],3152.0,1950.0,3146.0,2004.0,3305.0,1951.0
12180,[00:28:13.359],3138.0,1938.0,3130.0,2014.0,3279.0,1942.0
12181,[00:28:13.399],3165.0,1946.0,3142.0,1999.0,3304.0,1945.0
12182,[00:28:13.439],3126.0,1938.0,3116.0,1992.0,3299.0,1940.0
12183,[00:28:13.479],3145.0,1949.0,3136.0,2001.0,3315.0,1951.0
12184,[00:28:13.519],3128.0,1949.0,3157.0,2011.0,3270.0,1951.0
12185,[00:28:13.559],3172.0,1903.0,3465.0,2180.0,2857.0,1863.0
12186,[00:28:13.599],3163.0,1882.0,3460.0,2180.0,2848.0,1850.0
12187,[00:28:13.639],3130.0,1877.0,3456.0,2183.0,2845.0,1850.0
12188,[00:28:13.679],3147.0,1873.0,3441.0,2186.0,2859.0,1861.0
12189,[00:28:13.719],3116.0,1872.0,3430.0,2179.0,2854.0,1857.0
12190,[00:28:13.759],3126.0,1874.0,3437.0,2182.0,2862.0,1860.0
12191,[00:28:13.799],3138.0,1870.0,3460.0,2179.0,2866.0,1874.0
12192,[00:28:13.839],3140.0,1877.0,3468.0,2196.0,2867.0,1850.0
12193,[00:28:13.879],3183.0,1972.0,3000.0,1934.0,2660.0,1917.0
12194,[00:28:13.919],3146.0,1930.0,2990.0,1908.0,2666.0,1908.0
12195,[00:28:13.959],3149.0,1936.0,3028.0,1927.0,2628.0,1911.0
12196,[00:28:13.999],3158.0,1935.0,3022.0,1932.0,2630.0,1900.0
12197,[00:28:14.039],3142.0,1922.0,3003.0,1911.0,2626.0,1902.0
12198,[00:28:14.079],3166.0,1944.0,3016.0,1922.0,2642.0,1894.0
12199,[00:28:14.119],3163.0,1942.0,3013.0,1924.0,2654.0,1900.0
12200,[00:28:14.159],3158.0,1937.0,3013.0,1913.0,2626.0,1901.0
12201,[00:28:14.199],3134.0,1970.0,3200.0,2019.0,3197.0,1988.0
12202,[00:28:14.239],3111.0,1950.0,3169.0,2015.0,3183.0,1981.0
12203,[00:28:14.279],3106.0,1945.0,3188.0,2019.0,3182.0,1978.0
12204,[00:28:14.319],3102.0,1949.0,3186.0,2019.0,3159.0,1971.0
12205,[00:28:14.359],3098.0,1951.0,3185.0,2025.0,3191.0,1985.0
12206,[00:28:14.399],3107.0,1945.0,3195.0,2018.0,3177.0,1978.0
12207,[00:28:14.439],3076.0,1944.0,3186.0,2015.0,3173.0,1975.0
12208,[00:28:14.479],3086.0,1941.0,3205.0,2012.0,3194.0,1987.0
12209,[00:28:14.519],3298.0,1935.0,3213.0,1968.0,2913.0,1855.0
12210,[00:28:14.559],3300.0,1904.0,3181.0,1956.0,2904.0,1846.0
12211,[00:28:14.599],3319.0,1907.0,3201.0,1968.0,2902.0,1831.0
12212,[00:28:14.639],3291.0,1908.0,3206.0,1971.0,2906.0,1836.0
12213,[00:28:14.679],3295.0,1897.0,3204.0,1966.0,2922.0,1834.0
12214,[00:28:14.719],3312.0,1908.0,3204.0,1973.0,2916.0,1834.0
12215,[00:28:14.759],3311.0,1913.0,3229.0,1963.0,2923.0,1837.0
12216,[00:28:14.799],3296.0,1904.0,3220.0,1969.0,2883.0,1831.0
12217,[00:28:14.839],3206.0,1989.0,3673.0,2168.0,3019.0,1888.0
12218,[00:28:14.879],3140.0,1947.0,3670.0,2163.0,2971.0,1892.0
12219,[00:28:14.919],3132.0,1947.0,3669.0,2158.0,3028.0,1891.0
12220,[00:28:14.959],3130.0,1950.0,3665.0,2166.0,3008.0,1882.0
12221,[00:28:14.999],3152.0,1953.0,3659.0,2156.0,3010.0,1889.0
12222,[00:28:15.039],3166.0,1947.0,3653.0,2156.0,3019.0,1893.0
12223,[00:28:15.079],3145.0,1947.0,3653.0,2168.0,3004.0,1886.0
12224,[00:28:15.119],3164.0,1950.0,3664.0,2165.0,2998.0,1888.0
12225,[00:28:15.159],2774.0,1961.0,3220.0,2062.0,2947.0,1930.0
12226,[00:28:15.199],2754.0,1923.0,3210.0,2062.0,2969.0,1933.0
12227,[00:28:15.239],2747.0,1924.0,3213.0,2061.0,2926.0,1917.0
12228,[00:28:15.279],2735.0,1921.0,3216.0,2068.0,2967.0,1932.0
12229,[00:28:15.319],2745.0,1920.0,3207.0,2070.0,2953.0,1925.0
12230,[00:28:15.359],2750.0,1931.0,3213.0,2059.0,2946.0,1925.0
12231,[00:28:15.399],2741.0,1920.0,3216.0,2056.0,2928.0,1919.0
12232,[00:28:15.439],2728.0,1928.0,3183.0,2035.0,2958.0,1929.0
12233,[00:28:15.479],3085.0,1922.0,3359.0,1999.0,2803.0,1920.0
12234,[00:28:15.519],3039.0,1889.0,3321.0,1987.0,2772.0,1912.0
12235,[00:28:15.559],3047.0,1891.0,3349.0,2002.0,2786.0,1904.0
12236,[00:28:15.599],3046.0,1900.0,3338.0,1990.0,2799.0,1904.0